Satellite: ISS
Catalog number: 25544
Epoch time:      10090.87180706
Element set:     881
Inclination:      051.6441 deg
RA of node:       267.5162 deg
Eccentricity:    0.0006494
Arg of perigee:   125.0176 deg
Mean anomaly:     029.9676 deg
Mean motion:   15.74110583 rev/day
Decay rate:     2.1517e-04 rev/day^2
Epoch rev:           65129
Checksum:              299

Satellite: CO-58
Catalog number: 28895
Epoch time:      10089.70952284
Element set:     548
Inclination:      098.0261 deg
RA of node:       336.7402 deg
Eccentricity:    0.0018122
Arg of perigee:   167.7609 deg
Mean anomaly:     192.4023 deg
Mean motion:   14.59865790 rev/day
Decay rate:        3.7e-07 rev/day^2
Epoch rev:           23553
Checksum:              332

Satellite: FALCON
Catalog number: 30776
Epoch time:      10090.19522625
Element set:     796
Inclination:      035.4328 deg
RA of node:       157.7646 deg
Eccentricity:    0.0001341
Arg of perigee:   272.5616 deg
Mean anomaly:     087.4947 deg
Mean motion:   15.03557760 rev/day
Decay rate:      1.006e-05 rev/day^2
Epoch rev:           16831
Checksum:              298

Satellite: MAST
Catalog number: 31126
Epoch time:      10089.74863598
Element set:     829
Inclination:      097.9455 deg
RA of node:       135.7831 deg
Eccentricity:    0.0095854
Arg of perigee:   109.7464 deg
Mean anomaly:     251.4107 deg
Mean motion:   14.53567513 rev/day
Decay rate:       -7.6e-07 rev/day^2
Epoch rev:           15666
Checksum:              337

Satellite: CAPE1
Catalog number: 31130
Epoch time:      10090.13761218
Element set:     850
Inclination:      097.9485 deg
RA of node:       133.7183 deg
Eccentricity:    0.0103883
Arg of perigee:   115.9856 deg
Mean anomaly:     245.2143 deg
Mean motion:   14.52153784 rev/day
Decay rate:       2.10e-06 rev/day^2
Epoch rev:           15633
Checksum:              278

Satellite: COMPASS
Catalog number: 32787
Epoch time:      10090.31321154
Element set:     633
Inclination:      097.9003 deg
RA of node:       156.1190 deg
Eccentricity:    0.0015859
Arg of perigee:   175.0342 deg
Mean anomaly:     185.1020 deg
Mean motion:   14.81807145 rev/day
Decay rate:       4.21e-06 rev/day^2
Epoch rev:           10396
Checksum:              261

Satellite: AAUSAT2
Catalog number: 32788
Epoch time:      10089.91856669
Element set:     627
Inclination:      097.9063 deg
RA of node:       155.8429 deg
Eccentricity:    0.0015956
Arg of perigee:   175.7947 deg
Mean anomaly:     184.3383 deg
Mean motion:   14.81942520 rev/day
Decay rate:        3.0e-07 rev/day^2
Epoch rev:           10391
Checksum:              340

Satellite: DO-64
Catalog number: 32789
Epoch time:      10090.33905781
Element set:     643
Inclination:      097.9075 deg
RA of node:       156.6456 deg
Eccentricity:    0.0016204
Arg of perigee:   173.9957 deg
Mean anomaly:     186.1468 deg
Mean motion:   14.82041782 rev/day
Decay rate:       9.44e-06 rev/day^2
Epoch rev:           10397
Checksum:              340

Satellite: CO-66
Catalog number: 32791
Epoch time:      10089.71626988
Element set:     623
Inclination:      097.9024 deg
RA of node:       155.5535 deg
Eccentricity:    0.0015743
Arg of perigee:   175.6047 deg
Mean anomaly:     184.5286 deg
Mean motion:   14.81603640 rev/day
Decay rate:       2.06e-06 rev/day^2
Epoch rev:           10383
Checksum:              320

Satellite: RS-30
Catalog number: 32953
Epoch time:      10090.45695183
Element set:     561
Inclination:      082.4967 deg
RA of node:       078.0121 deg
Eccentricity:    0.0017343
Arg of perigee:   273.6152 deg
Mean anomaly:     086.2954 deg
Mean motion:   12.43004618 rev/day
Decay rate:        1.0e-07 rev/day^2
Epoch rev:            8408
Checksum:              282

Satellite: TACSAT-3
Catalog number: 35001
Epoch time:      10090.10718089
Element set:     250
Inclination:      040.4576 deg
RA of node:       322.8731 deg
Eccentricity:    0.0020329
Arg of perigee:   142.3977 deg
Mean anomaly:     217.8263 deg
Mean motion:   15.40954274 rev/day
Decay rate:      6.680e-05 rev/day^2
Epoch rev:            4858
Checksum:              288

Satellite: PHARMSAT
Catalog number: 35002
Epoch time:      10090.02455349
Element set:     237
Inclination:      040.4712 deg
RA of node:       321.6711 deg
Eccentricity:    0.0023349
Arg of perigee:   145.3305 deg
Mean anomaly:     214.9038 deg
Mean motion:   15.41548974 rev/day
Decay rate:      6.177e-05 rev/day^2
Epoch rev:            4858
Checksum:              274

Satellite: HAWKSAT1
Catalog number: 35003
Epoch time:      10090.84848311
Element set:     252
Inclination:      040.4639 deg
RA of node:       313.5267 deg
Eccentricity:    0.0021735
Arg of perigee:   162.2466 deg
Mean anomaly:     197.9067 deg
Mean motion:   15.43826248 rev/day
Decay rate:     1.1983e-04 rev/day^2
Epoch rev:            4875
Checksum:              301

Satellite: CP6
Catalog number: 35004
Epoch time:      10089.84602553
Element set:     244
Inclination:      040.4633 deg
RA of node:       319.1301 deg
Eccentricity:    0.0020544
Arg of perigee:   156.5817 deg
Mean anomaly:     203.5878 deg
Mean motion:   15.44339136 rev/day
Decay rate:     1.4385e-04 rev/day^2
Epoch rev:            4859
Checksum:              291

